[[{"header":{"parameterUnit":"m.s-1","parameterCategory":1,"la1":30.2991,"la2":30.254,"lo1":-89.0895,"lo2":-89.0444,"dy":0.0017,"dx":0.0017,"nx":28,"ny":28,"refTime":"2025-01-31T03:00:00:Z","depth":0,"parameterNumber":2,"parameterNumberName":"U-component_of_WINDS"},"data":[0,0,0,0,0,0,0,0,0,0,0,0,0,0,0,0,0,0,0,0,0,0,0,0,0,0,0,0,0,0,0,0,0,0,0,0,0,0,0,0,0,0,0,0,0,0,0,0,0,0,0,0,0,0,0,0,0,0,-3.4658,-3.4658,0,-3.4718,-3.4719,-3.4719,-3.4718,-3.4717,-3.4716,-3.4715,-3.4776,-3.4779,-3.4781,0,0,0,0,0,0,0,0,0,0,0,0,0,-3.4542,-3.4544,-3.4658,-3.4658,-3.4659,-3.4718,-3.4719,-3.472,-3.4718,-3.4717,-3.4716,-3.4715,-3.4776,-3.4778,-3.4781,0,0,0,0,0,0,0,0,0,0,0,0,0,-3.4596,-3.4545,-3.4657,-3.4665,-3.4667,-3.4718,-3.4719,-3.472,-3.4718,-3.4717,-3.4715,-3.4714,-3.4775,-3.4778,-3.4782,-3.4829,0,0,-3.4793,-3.4794,0,0,0,0,0,0,0,0,-3.4593,-3.46,-3.4663,-3.4665,-3.4666,-3.4709,-3.47,-3.4756,-3.4718,-3.4698,-3.4715,-3.4714,-3.4755,-3.476,-3.4774,-3.4832,-3.4834,-3.4793,-3.4795,-3.4797,-3.4798,0,0,0,0,0,0,0,-3.4589,-3.4598,-3.4681,-3.4664,-3.4666,-3.4666,-3.4672,-3.4711,-3.4733,-3.47,-3.47,-3.4707,-3.4756,-3.4771,-3.4776,-3.4835,-3.4793,-3.4796,-3.4798,-3.48,-3.4936,-3.4938,0,0,0,0,0,0,-3.4584,-3.4595,-3.468,-3.4683,-3.4626,-3.4669,-3.4676,-3.4697,-3.4732,-3.4737,-3.4708,-3.4707,-3.4765,-3.4771,-3.4778,-3.4836,-3.4797,-3.48,-3.4802,-3.4935,-3.4937,-3.4938,0,0,0,0,0,0,-3.4581,-3.4591,-3.4677,-3.4639,-3.465,-3.4673,-3.4695,-3.4698,-3.4713,-3.4739,-3.4743,-3.472,-3.4764,-3.4773,-3.4817,-3.4838,-3.4802,-3.4805,-3.4933,-3.4935,-3.4937,-3.4951,0,0,0,0,0,0,-3.4578,-3.459,-3.4608,-3.4639,-3.4652,-3.4714,-3.4697,-3.4701,-3.472,-3.4719,-3.475,-3.4754,-3.4764,-3.4811,-3.482,-3.4842,-3.4808,-3.4931,-3.4934,-3.4937,-3.4949,-3.4954,-3.4958,0,0,0,0,0,-3.4574,-3.4609,-3.4609,-3.4619,-3.4675,-3.4716,-3.4723,-3.4733,-3.4721,-3.474,-3.4756,-3.4753,-3.4835,-3.4816,-3.4826,-3.4849,-3.493,-3.4933,-3.4937,-3.4947,-3.4953,-3.4958,0,0,0,0,0,0,-3.4579,-3.4613,-3.4613,-3.466,-3.4685,-3.4715,-3.4738,-3.4739,-3.4767,-3.4765,-3.4777,-3.4784,-3.4828,-3.4843,-3.4822,-3.4897,-3.4881,-3.4886,-3.4885,-3.4891,-3.4895,-3.489,-3.4811,0,0,0,0,0,-3.4586,-3.4616,-3.4645,-3.4683,-3.4696,-3.4715,-3.4733,-3.474,-3.4766,-3.4776,-3.4796,-3.4822,-3.4853,-3.4873,-3.4903,-3.4952,-3.4959,-3.4974,-3.4978,-3.4981,-3.4985,-3.5013,-3.502,-3.4949,-3.4949,-3.4949,0,0,-3.4599,-3.4622,-3.464,-3.4685,-3.4705,-3.4736,-3.4724,-3.4757,-3.4781,-3.4781,-3.4824,-3.484,-3.4869,-3.4916,-3.4938,-3.493,-3.5007,-3.4986,-3.4988,-3.499,-3.5017,-3.5024,-3.503,-3.4951,-3.4951,-3.4951,0,0,-3.464,-3.4661,-3.4695,-3.4716,-3.4747,-3.476,-3.4769,-3.48,-3.481,-3.4853,-3.4855,-3.4883,-3.4937,-3.4958,-3.4976,-3.5028,-3.5027,-3.5038,-3.506,-3.5087,-3.5092,-3.5097,-3.5115,-3.5122,-3.5042,-3.5042,-3.5042,0,-3.4653,-3.47,-3.4712,-3.4747,-3.4766,-3.477,-3.4805,-3.4825,-3.4864,-3.4878,-3.4869,-3.4938,-3.4958,-3.501,-3.5023,-3.5037,-3.5048,-3.5033,-3.5091,-3.5096,-3.51,-3.5118,-3.5125,-3.5044,-3.5043,-3.5043,-3.5043,0,-3.4715,-3.4748,-3.4772,-3.481,-3.4833,-3.4868,-3.4886,-3.4908,-3.4913,-3.4927,-3.4972,-3.4997,-3.5033,-3.5046,-3.5051,-3.51,-3.5094,-3.5088,-3.5071,-3.5108,-3.5125,-3.5132,-3.5045,-3.5045,-3.5044,-3.5044,0,0,-3.4757,-3.4804,-3.4813,-3.4831,-3.4867,-3.4892,-3.4928,-3.4964,-3.4982,-3.501,-3.504,-3.5087,-3.5082,-3.5103,-3.5111,-3.5135,-3.5174,-3.5126,-3.5127,-3.5133,-3.5229,-3.5232,-3.524,-3.5175,-3.5176,-3.5177,-3.5227,0,-3.4801,-3.4863,-3.4877,-3.4931,-3.4962,-3.4967,-3.4999,-3.5024,-3.504,-3.5069,-3.5086,-3.5118,-3.511,-3.5122,-3.5146,-3.5164,-3.5194,-3.5161,-3.5202,-3.5204,-3.5193,-3.5249,-3.5252,-3.5297,-3.5233,-3.5234,-3.5235,0,-3.4859,-3.4889,-3.4947,-3.498,-3.4994,-3.5021,-3.5056,-3.5084,-3.5114,-3.5123,-3.5147,-3.5153,-3.5191,-3.5175,-3.5227,-3.5205,-3.5224,-3.5235,-3.5238,-3.524,-3.522,-3.5252,-3.5312,-3.5318,-3.5246,-3.5245,-3.5244,0,-3.4884,-3.4939,-3.4981,-3.4996,-3.5036,-3.5056,-3.5073,-3.5102,-3.5123,-3.5154,-3.5168,-3.5203,-3.5221,-3.5248,-3.5264,-3.525,-3.5316,-3.53,-3.5324,-3.5324,-3.5336,-3.5334,-3.5398,-3.535,-3.535,-3.535,-3.535,0,-3.493,-3.4965,-3.4992,-3.5018,-3.5057,-3.5074,-3.5112,-3.513,-3.5156,-3.5186,-3.5193,-3.5221,-3.524,-3.5271,-3.5284,-3.5326,-3.5334,-3.5343,-3.5346,-3.5341,-3.534,-3.5352,-3.5349,-3.5352,-3.5351,-3.5351,-3.5351,0,-3.4963,-3.4983,-3.5028,-3.5064,-3.5073,-3.5101,-3.5131,-3.5156,-3.5173,-3.521,-3.522,-3.5246,-3.5282,-3.5301,-3.5347,-3.5356,-3.5402,-3.5404,-3.5392,-3.5393,-3.5416,-3.5413,-3.5488,-3.5498,-3.5445,-3.5445,-3.5446,0,-3.499,-3.5017,-3.5056,-3.5076,-3.5094,-3.5127,-3.5149,-3.5167,-3.519,-3.5227,-3.5248,-3.5286,-3.5316,-3.5375,-3.5398,-3.5433,-3.5435,-3.5459,-3.544,-3.5435,-3.5434,-3.5431,-3.5434,-3.5461,-3.5462,-3.5462,-3.5462,0,-3.5036,-3.5046,-3.5077,-3.5113,-3.5139,-3.5167,-3.5196,-3.5212,-3.5235,-3.526,-3.5298,-3.5322,-3.537,-3.5406,-3.5444,-3.5463,-3.5466,-3.5469,-3.5476,-3.5471,-3.5462,-3.5466,-3.54,-3.5466,-3.5466,-3.5465,-3.5465,-3.5465,-3.5067,-3.5091,-3.5123,-3.5158,-3.5182,-3.5208,-3.5234,-3.5255,-3.5287,-3.5326,-3.5336,-3.5376,-3.5407,-3.5458,-3.5478,-3.551,-3.5505,-3.5516,-3.5518,-3.552,-3.5521,-3.5459,-3.5518,-3.5517,-3.5517,-3.5517,-3.5517,0,-3.5113,-3.5134,-3.5166,-3.5206,-3.5234,-3.5237,-3.5269,-3.5292,-3.5327,-3.5356,-3.5387,-3.5431,-3.5468,-3.5495,-3.5532,-3.5553,-3.5555,-3.5562,-3.5559,-3.5564,-3.5524,-3.5513,-3.5559,-3.5559,-3.5559,-3.5559,-3.5559,-3.5559,-3.5139,-3.5181,-3.5195,-3.5249,-3.527,-3.5309,-3.5327,-3.5353,-3.5376,-3.5425,-3.5456,-3.5473,-3.5502,-3.5542,-3.5576,-3.5583,-3.5596,-3.5602,-3.5609,-3.5571,-3.5566,-3.5562,-3.5552,-3.5605,-3.5605,-3.5647,-3.5647,-3.5647]},{"header":{"parameterUnit":"m.s-1","parameterCategory":1,"la1":30.2991,"la2":30.254,"lo1":-89.0895,"lo2":-89.0444,"dy":0.0017,"dx":0.0017,"nx":28,"ny":28,"refTime":"2025-01-31T03:00:00:Z","depth":0,"parameterNumber":3,"parameterNumberName":"V-component_of_WINDS"},"data":[0,0,0,0,0,0,0,0,0,0,0,0,0,0,0,0,0,0,0,0,0,0,0,0,0,0,0,0,0,0,0,0,0,0,0,0,0,0,0,0,0,0,0,0,0,0,0,0,0,0,0,0,0,0,0,0,0,0,3.2739,3.2739,0,3.2748,3.2749,3.2749,3.2784,3.2785,3.2786,3.2786,3.2795,3.2794,3.2794,0,0,0,0,0,0,0,0,0,0,0,0,0,3.2755,3.2754,3.2739,3.2739,3.2739,3.2748,3.2749,3.2749,3.2784,3.2785,3.2786,3.2787,3.2795,3.2794,3.2794,0,0,0,0,0,0,0,0,0,0,0,0,0,3.2754,3.2754,3.2739,3.2758,3.276,3.2748,3.2749,3.2749,3.2784,3.2785,3.2786,3.2787,3.2795,3.2794,3.2794,3.2765,0,0,3.2791,3.2791,0,0,0,0,0,0,0,0,3.2754,3.2754,3.2755,3.2757,3.2759,3.2766,3.2757,3.2754,3.2783,3.2774,3.2786,3.2788,3.2784,3.2785,3.2784,3.2765,3.2765,3.2791,3.2791,3.279,3.279,0,0,0,0,0,0,0,3.2754,3.2754,3.2743,3.2755,3.2757,3.2767,3.2768,3.2757,3.2772,3.2775,3.2778,3.2779,3.2786,3.2784,3.2784,3.2765,3.2791,3.2791,3.279,3.279,3.2729,3.2728,0,0,0,0,0,0,3.2752,3.2753,3.2743,3.2743,3.276,3.2766,3.2767,3.2763,3.2773,3.2775,3.2778,3.278,3.2785,3.2785,3.2784,3.2755,3.279,3.279,3.2789,3.273,3.2729,3.2728,0,0,0,0,0,0,3.2752,3.275,3.2742,3.2749,3.2749,3.2764,3.2759,3.2762,3.2761,3.2774,3.2777,3.2773,3.2786,3.2786,3.2771,3.2755,3.2789,3.2789,3.2732,3.273,3.2728,3.2693,0,0,0,0,0,0,3.2752,3.275,3.2738,3.2748,3.2748,3.2727,3.2758,3.2761,3.276,3.2763,3.2771,3.2774,3.2787,3.2772,3.277,3.2755,3.2788,3.2733,3.2731,3.2729,3.2695,3.269,3.2685,0,0,0,0,0,3.2752,3.2726,3.2737,3.2736,3.2734,3.2726,3.2726,3.2742,3.2758,3.2747,3.2757,3.2773,3.2757,3.277,3.2768,3.2753,3.2734,3.2732,3.2729,3.2697,3.2691,3.2685,0,0,0,0,0,0,3.2712,3.2728,3.274,3.2716,3.272,3.2732,3.2718,3.2734,3.2732,3.2736,3.2756,3.2757,3.274,3.2745,3.2758,3.2728,3.2749,3.2746,3.2725,3.2719,3.2714,3.2714,3.2787,0,0,0,0,0,3.27,3.2693,3.2707,3.2685,3.2686,3.2702,3.2699,3.2712,3.2716,3.2717,3.2726,3.2729,3.2726,3.2723,3.2719,3.2696,3.27,3.2685,3.268,3.2676,3.2673,3.2666,3.266,3.2719,3.2719,3.2719,0,0,3.2676,3.2684,3.2677,3.2677,3.2681,3.2674,3.2703,3.2693,3.2689,3.2716,3.2703,3.271,3.2715,3.2698,3.269,3.2701,3.2658,3.2673,3.2669,3.2669,3.2663,3.2657,3.2652,3.2718,3.2718,3.2718,0,0,3.2629,3.2632,3.2617,3.2621,3.2628,3.264,3.2636,3.2647,3.2653,3.2641,3.2663,3.2658,3.265,3.2655,3.2656,3.2617,3.2633,3.2615,3.2589,3.2582,3.2577,3.2573,3.2562,3.2557,3.2612,3.2612,3.2612,0,3.2597,3.2587,3.2606,3.2597,3.2598,3.2624,3.261,3.2613,3.2618,3.2619,3.2631,3.2625,3.2631,3.2616,3.2607,3.2606,3.2605,3.2614,3.2576,3.2572,3.2569,3.2559,3.2554,3.261,3.261,3.261,3.2611,0,3.2551,3.2544,3.253,3.2537,3.2536,3.2524,3.2543,3.254,3.2554,3.2565,3.2555,3.2563,3.2564,3.2562,3.2573,3.255,3.2557,3.2572,3.2594,3.2561,3.2552,3.2548,3.2607,3.2608,3.2608,3.2609,0,0,3.2475,3.2496,3.2491,3.2497,3.2509,3.2504,3.2495,3.2498,3.2497,3.25,3.2495,3.249,3.2506,3.2507,3.2521,3.2514,3.2487,3.2531,3.2531,3.2524,3.2465,3.2455,3.245,3.2498,3.2497,3.2496,3.2466,0,3.2433,3.2418,3.2437,3.2419,3.2416,3.2443,3.2436,3.2443,3.2454,3.2453,3.2465,3.2463,3.2482,3.2484,3.2478,3.2491,3.2475,3.2493,3.2494,3.2494,3.2493,3.2444,3.2433,3.2403,3.2462,3.2461,3.2461,0,3.238,3.2385,3.2367,3.2384,3.2383,3.2376,3.2383,3.2381,3.2392,3.24,3.2405,3.2422,3.2416,3.2437,3.2431,3.2443,3.2445,3.2452,3.2451,3.2453,3.2476,3.2447,3.2394,3.239,3.2455,3.2455,3.2456,0,3.2331,3.2332,3.2323,3.2326,3.2346,3.2341,3.2349,3.2361,3.2363,3.2368,3.2371,3.2375,3.2378,3.2381,3.2401,3.2414,3.2394,3.2415,3.2403,3.2402,3.2397,3.2397,3.2346,3.2396,3.2396,3.2396,3.2396,0,3.2282,3.2271,3.2302,3.2296,3.2286,3.2309,3.2298,3.2309,3.232,3.2318,3.2341,3.2339,3.2364,3.2365,3.238,3.2375,3.2375,3.2384,3.2388,3.2383,3.2382,3.2385,3.2388,3.2395,3.2395,3.2395,3.2395,0,3.2225,3.2245,3.2238,3.2258,3.2263,3.2255,3.2273,3.227,3.2284,3.2282,3.2283,3.2305,3.2308,3.2328,3.2334,3.2345,3.2335,3.2342,3.2332,3.2335,3.2322,3.2324,3.2272,3.2267,3.2318,3.2317,3.2317,0,3.2194,3.2186,3.2208,3.2209,3.2216,3.2217,3.2221,3.2244,3.2247,3.2261,3.2257,3.2262,3.2268,3.2272,3.2289,3.2296,3.2305,3.2286,3.2306,3.2302,3.2308,3.2309,3.231,3.2282,3.2282,3.2281,3.2281,0,3.2137,3.2148,3.2152,3.2161,3.2165,3.2172,3.2181,3.2181,3.2208,3.221,3.2214,3.2219,3.2229,3.2235,3.2245,3.2254,3.2273,3.2275,3.2273,3.2267,3.2263,3.2268,3.2323,3.2276,3.2276,3.2276,3.2277,3.2277,3.2093,3.209,3.2105,3.211,3.212,3.213,3.2129,3.2145,3.2149,3.2159,3.2173,3.2177,3.2192,3.2208,3.2216,3.222,3.223,3.2226,3.2226,3.2225,3.2223,3.2261,3.2222,3.2222,3.2222,3.2222,3.2222,0,3.204,3.2052,3.2057,3.2071,3.2075,3.2094,3.2106,3.2109,3.2112,3.2125,3.2131,3.2139,3.2146,3.2165,3.2175,3.2174,3.2183,3.2176,3.2177,3.218,3.2212,3.2214,3.2169,3.2169,3.2169,3.2169,3.2169,3.2169,3.2013,3.2009,3.2023,3.2026,3.2039,3.2044,3.205,3.2059,3.207,3.2078,3.2085,3.2097,3.2114,3.2125,3.2134,3.2139,3.2143,3.2133,3.2142,3.2172,3.2177,3.2182,3.2184,3.2133,3.2133,3.2109,3.2109,3.2109]}]]